Home   Weather   Sarh   Past weeks

Flag for Chad Past Weather in Sarh, Chad — Yesterday and Last 2 Weeks

Now
75 °F

Passing clouds.


Feels Like: 74 °F
Forecast: 72 / 86 °F
Wind: No wind

Location: Sarh Airport

Current Time: Jul 22, 2017 at 8:05:12 am

Latest Report: Jul 22, 2017 at 7:00 am


Visibility: 5 mi

Pressure: 29.95 "Hg

Humidity: 94%

Dew Point: 73 °F

Location of SarhLocation

Past Weather in Sarh — Graph

°F

Sarh Temperature Yesterday

Maximum temperature yesterday: 79 °F (at 12:00 pm)
Minimum temperature yesterday: 72 °F (at 12:00 am)
Average temperature yesterday: 75 °F

High & Low Weather Summary for the Past Weeks

 TemperatureHumidityPressure
High93 °F (Jul 20, 3:00 pm)100% (Jul 9, 5:00 am)30.09 "Hg (Jul 9, 5:00 am)
Low70 °F (Jul 10, 7:00 am)28% (Jul 20, 4:00 pm)29.80 "Hg (Jul 20, 4:00 pm)
Average79 °F82%29.96 "Hg
* Reported Jul 7 5:00 am — Jul 22 5:00 am, Sarh. Weather by CustomWeather, © 2017

Note: Actual official high and low records may vary slightly from our data, if they occured in-between our weather recording intervals... More about our weather records

Advertising

Sarh Weather History for the Previous 24 Hours

Scroll right to see more
 ConditionsComfort  
Time TempWeatherWind HumidityBarometerVisibility
5:00 am
Sat, Jul 22
73 °FClear.No wind94%29.89 "Hg10 mi
4:00 am73 °FClear.No wind94%29.89 "Hg10 mi
3:00 am73 °FClear.No wind94%29.89 "Hg10 mi
2:00 am73 °FClear.No wind94%29.92 "Hg10 mi
1:00 am75 °FClear.No wind94%29.92 "Hg10 mi
12:00 am75 °FClear.No wind94%29.89 "Hg10 mi
11:00 pm
Fri, Jul 21
75 °FPassing clouds.No wind94%29.92 "HgN/A
10:00 pm75 °FPassing clouds.No wind94%29.92 "HgN/A
9:00 pm75 °FPassing clouds.No wind94%29.92 "HgN/A
8:00 pm77 °FPassing clouds.No wind89%29.92 "HgN/A
7:00 pm77 °FPassing clouds.No wind89%29.89 "HgN/A
6:00 pm77 °FPassing clouds.No wind89%29.89 "HgN/A
5:00 pm77 °FPassing clouds.9 mph83%29.89 "HgN/A
4:00 pm79 °FPassing clouds.5 mph84%29.89 "HgN/A
3:00 pm77 °FPassing clouds.5 mph83%29.92 "HgN/A
2:00 pm79 °FPassing clouds.5 mph79%29.89 "HgN/A
1:00 pm79 °FPassing clouds.5 mph79%29.92 "HgN/A
12:00 pm79 °FPassing clouds.9 mph79%29.92 "HgN/A
11:00 am77 °FPartly sunny.9 mph79%29.95 "HgN/A
10:00 am77 °FPartly sunny.9 mph79%29.95 "HgN/A
8:00 am73 °FPartly sunny.12 mph89%29.95 "HgN/A
Weather by CustomWeather, © 2017

See weather overviewHow to use our weather pages